TimeEST,TemperatureF,Dew PointF,Humidity,Sea Level PressureIn,VisibilityMPH,Wind Direction,Wind SpeedMPH,Gust SpeedMPH,PrecipitationIn,Events,Conditions,WindDirDegrees,DateUTC
12:53 AM,28.0,18.0,66,30.07,9.0,West,3.5,-,N/A,,Clear,270,2013-01-04 05:53:00
1:53 AM,27.0,18.0,69,30.08,10.0,WSW,4.6,-,N/A,,Clear,240,2013-01-04 06:53:00
2:53 AM,28.0,18.0,66,30.09,10.0,West,3.5,-,N/A,,Mostly Cloudy,260,2013-01-04 07:53:00
3:53 AM,28.0,19.9,72,30.09,10.0,WSW,3.5,-,N/A,,Overcast,240,2013-01-04 08:53:00
4:53 AM,30.9,19.9,64,30.09,10.0,West,4.6,-,N/A,,Overcast,260,2013-01-04 09:53:00
5:53 AM,32.0,19.9,61,30.09,10.0,West,4.6,-,N/A,,Overcast,270,2013-01-04 10:53:00
6:53 AM,32.0,19.9,61,30.10,10.0,West,5.8,-,N/A,,Partly Cloudy,280,2013-01-04 11:53:00
8:53 AM,34.0,19.9,56,30.10,10.0,West,11.5,-,N/A,,Overcast,280,2013-01-04 13:53:00
9:53 AM,34.0,21.0,59,30.11,10.0,Variable,6.9,-,N/A,,Overcast,0,2013-01-04 14:53:00
10:53 AM,34.0,19.0,54,30.09,10.0,WNW,17.3,21.9,N/A,,Overcast,290,2013-01-04 15:53:00
11:53 AM,35.1,19.0,52,30.06,10.0,WNW,16.1,23.0,N/A,,Overcast,300,2013-01-04 16:53:00
12:53 PM,35.1,19.9,54,30.04,10.0,WNW,15.0,24.2,N/A,,Overcast,300,2013-01-04 17:53:00
1:53 PM,36.0,19.9,52,30.01,10.0,WNW,12.7,26.5,N/A,,Mostly Cloudy,300,2013-01-04 18:53:00
2:53 PM,37.0,19.9,50,29.99,10.0,NW,13.8,19.6,N/A,,Clear,310,2013-01-04 19:53:00
3:53 PM,37.0,19.9,50,29.99,10.0,WNW,10.4,19.6,N/A,,Clear,290,2013-01-04 20:53:00
4:53 PM,36.0,21.0,55,29.99,10.0,West,11.5,18.4,N/A,,Clear,270,2013-01-04 21:53:00
5:53 PM,36.0,19.9,52,30.00,10.0,West,11.5,-,N/A,,Clear,280,2013-01-04 22:53:00
6:53 PM,35.1,21.0,57,30.01,10.0,West,5.8,-,N/A,,Clear,270,2013-01-04 23:53:00
7:53 PM,34.0,21.0,59,30.01,10.0,West,5.8,-,N/A,,Clear,270,2013-01-05 00:53:00
8:53 PM,34.0,19.9,56,30.01,10.0,West,9.2,-,N/A,,Clear,280,2013-01-05 01:53:00
9:53 PM,34.0,19.0,54,30.02,10.0,WNW,5.8,-,N/A,,Clear,290,2013-01-05 02:53:00
10:53 PM,34.0,19.0,54,30.04,10.0,West,6.9,-,N/A,,Clear,280,2013-01-05 03:53:00
11:53 PM,33.1,19.0,56,30.04,10.0,West,6.9,-,N/A,,Clear,270,2013-01-05 04:53:00